Regional Weather Roundup
Issued by NWS

Home | Current Version | Previous Version | Graphics & Text | Print | Product List | Glossary On
Versions: 1 2 3 4 5 6 7 8 9 10 11 12 13 14 15 16 17 18 19 20 21 22 23 24 25 26 27 28 29 30 31 32 33 34 35 36 37 38 39 40 41 42 43 44 45 46 47 48 49 50
000
ASUS43 KDTX 190601
RWRMI
MICHIGAN HOURLY REGIONAL WEATHER ROUNDUP
NATIONAL WEATHER SERVICE DETROIT/PONTIAC MI
100 AM EST FRI DEC 19 2014

NOTE: "FAIR" INDICATES FEW OR NO CLOUDS BELOW 12,000 FEET WITH NO
SIGNIFICANT WEATHER AND/OR OBSTRUCTION TO VISIBILITY.

MIZ047>049-052>055-059>063-066>070-074>076-081>083-190700-
SOUTHEAST LOWER MICHIGAN

CITY           SKY/WX    TMP DP  RH WIND       PRES   REMARKS
ADRIAN         CLOUDY    29  25  85 NW7       30.20F WCI  22
6HR MIN TEMP:  29; 6HR MAX TEMP:  30;

ALMA           CLOUDY    26  21  82 N5        30.22S WCI  21
ANN ARBOR      CLOUDY    30  28  92 W9        30.18S FOG     WCI  22
BAD AXE        CLOUDY    27  23  87 NW9       30.19S WCI  17
6HR MIN TEMP:  26; 6HR MAX TEMP:  27;

CARO           CLOUDY    26  22  84 W5        30.20S WCI  20
DETROIT CITY   CLOUDY    30  23  75 N10       30.19S WCI  21
6HR MIN TEMP:  30; 6HR MAX TEMP:  34; 6HR PCP: TRACE;

DETROIT        CLOUDY    30  26  85 N7        30.19F WCI  23
6HR MIN TEMP:  30; 6HR MAX TEMP:  32; 6HR PCP: TRACE;

FLINT          CLOUDY    27  22  81 NW7       30.21S WCI  19
6HR MIN TEMP:  27; 6HR MAX TEMP:  30;

GROSSE ILE     MIX PCPN  30  28  93 N3        30.18S
HILLSDALE      CLOUDY    28  28  99 W6        30.17S FOG     WCI  21
6HR MIN TEMP:  28; 6HR MAX TEMP:  29;

HOWELL         CLOUDY    26  26  97 N3        30.18S
6HR MIN TEMP:  26; 6HR MAX TEMP:  30;


CITY           SKY/WX    TMP DP  RH WIND       PRES   REMARKS
JACKSON        CLOUDY    28  26  92 W5        30.18F FOG     WCI  23
6HR MIN TEMP:  28; 6HR MAX TEMP:  29;

LAMBERTVILLE   CLOUDY    32  28  86 W5        30.20S WCI  27
LANSING        CLOUDY    27  25  92 N5        30.20S WCI  22
6HR MIN TEMP:  27; 6HR MAX TEMP:  31; 6HR PCP: TRACE;

LAPEER         CLOUDY    25  23  89 NW3       30.20S
MASON          CLOUDY    28  26  94 NE5       30.18F WCI  23
MONROE         CLOUDY    30  28  93 W8        30.18S FOG     WCI  23
MT. CLEMENS    CLOUDY    26  26  99 N10       30.18S WCI  17
6HR MIN TEMP:  26; 6HR MAX TEMP:  30; 6HR PCP: TRACE;

PONTIAC        CLOUDY    26  23  88 N8        30.17S WCI  18
6HR MIN TEMP:  26; 6HR MAX TEMP:  30; 6HR PCP: TRACE;

PORT HOPE        N/A     29  23  78 NW8       30.18R WCI  21
6HR MIN TEMP:  29; 6HR MAX TEMP:  30;

PORT HURON     CLOUDY    27  23  86 NW7       30.18F WCI  19
TRI CITIES     CLOUDY    26  19  74 N8        30.23S WCI  18
6HR MIN TEMP:  26; 6HR MAX TEMP:  29;

TROY           CLOUDY    30  25  81 N8        30.20S WCI  22
SAGINAW HB     CLOUDY    27  21  80 N3        30.22S
$$
MIZ043>046-050>051-056>058-064>065-071>073-077>080-190700-
SOUTHWEST LOWER MICHIGAN

CITY           SKY/WX    TMP DP  RH WIND       PRES   REMARKS
BATTLE CREEK   CLOUDY    29  25  85 W6        30.19S FOG     WCI  23
6HR MIN TEMP:  28; 6HR MAX TEMP:  29; 6HR PCP: TRACE;

BENTON HARBOR  FLURRIES  31  28  89 NW3       30.21F
6HR MIN TEMP:  29; 6HR MAX TEMP:  31; 6HR PCP:  0.01;

BIG RAPIDS     CLOUDY    25  21  85 CALM      30.20S
6HR MIN TEMP:  25; 6HR MAX TEMP:  28;

COLDWATER      CLOUDY    27  25  94 W6        30.19S FOG     WCI  20
6HR MIN TEMP:  27; 6HR MAX TEMP:  28;

FREMONT        FAIR      23  19  86 N3        30.22R
HOLLAND        CLOUDY    30  22  72 NE5       30.22S WCI  25
6HR MIN TEMP:  30; 6HR MAX TEMP:  33; 6HR PCP: TRACE;

GRAND RAPIDS   CLOUDY    28  23  81 N5        30.20S WCI  23
6HR MIN TEMP:  28; 6HR MAX TEMP:  31; 6HR PCP: TRACE;

IONIA          CLOUDY    28  25  87 NE5       30.19S WCI  23
KALAMAZOO      CLOUDY    28  25  88 SW3       30.20S
6HR MIN TEMP:  28; 6HR MAX TEMP:  29; 6HR PCP: TRACE;

LUDINGTON      CLEAR     16  13  88 CALM      30.24S FOG
6HR MIN TEMP:  16; 6HR MAX TEMP:  26;

MARSHALL       CLOUDY    27  26  94 W5        30.18F FOG     WCI  22
MOUNT PLEASANT CLOUDY    26  20  79 N3        30.21S
6HR MIN TEMP:  26; 6HR MAX TEMP:  28;

MUSKEGON       CLEAR     26  19  74 N5        30.23S WCI  20
6HR MIN TEMP:  26; 6HR MAX TEMP:  32;

SOUTH HAVEN    CLOUDY    32  24  73 N8        30.21F WCI  25
$$
MIZ016>042-190700-
NORTHERN LOWER MICHIGAN

CITY           SKY/WX    TMP DP  RH WIND       PRES   REMARKS
ALPENA         CLEAR     15  12  88 W3        30.22S
6HR MIN TEMP:  15; 6HR MAX TEMP:  19;

BEAVER ISLAND  CLEAR     12  10  92 CALM      30.25R
6HR MIN TEMP:  11; 6HR MAX TEMP:  22;

BELLAIRE       PTCLDY    11   9  89 CALM      30.25F
6HR MIN TEMP:  11; 6HR MAX TEMP:  19;

CADILLAC       CLOUDY    12   9  85 CALM      30.19S
CHARLEVOIX     CLEAR     14  12  92 CALM      30.26F
6HR MIN TEMP:  14; 6HR MAX TEMP:  23;

FRANKFORT      PTCLDY    11   9  94 CALM      30.25S
GAYLORD        PTCLDY     6   2  83 CALM      30.19F
6HR MIN TEMP:   3; 6HR MAX TEMP:  17;

GRAYLING       PTCLDY     7   5  91 CALM      30.21F
6HR MIN TEMP:   7; 6HR MAX TEMP:  19;

HARBOR SPRINGS PTCLDY    10   8  89 CALM      30.24S
HOUGHTON LAKE  CLEAR     14  12  92 CALM      30.21S
6HR MIN TEMP:  14; 6HR MAX TEMP:  22;

MANISTEE       PTCLDY    10   7  85 E6        30.24S WCI   1
OSCODA         CLEAR     16  13  87 NW5       30.20F WCI   9
PELLSTON       PTCLDY     4  -2  76 CALM      30.24S
6HR MIN TEMP:   2; 6HR MAX TEMP:  10;

ROGERS CITY    CLEAR     12  11  96 CALM      30.23S
TRAVERSE CITY  CLEAR     14  11  87 CALM      30.24S
6HR MIN TEMP:  14; 6HR MAX TEMP:  25;

$$
MIZ007>008-015-190700-
EASTERN UPPER MICHIGAN

CITY           SKY/WX    TMP DP  RH WIND       PRES   REMARKS
KINROSS        PTCLDY    10   9  92 N3        30.23S
6HR MIN TEMP:   9; 6HR MAX TEMP:  18;

MACKINAC ISLAN PTCLDY    19  14  81 NE8       30.23S WCI   9
6HR MIN TEMP:  17; 6HR MAX TEMP:  22;

NEWBERRY       PTCLDY     9   9  98 NW3       30.23S
6HR MIN TEMP:   8; 6HR MAX TEMP:  20;

S. S. MARIE    PTCLDY    10   6  84 N3        30.22R
6HR MIN TEMP:  10; 6HR MAX TEMP:  21;

MUNISING         N/A     20  15  81 S5        30.25F WCI  13
6HR MIN TEMP:  16; 6HR MAX TEMP:  30;

$$
MIZ004>006-011>014-085-190700-
CENTRAL UPPER MICHIGAN

CITY           SKY/WX    TMP DP  RH WIND       PRES   REMARKS
MANISTIQUE     PTCLDY    13  12  96 NW3       30.25S
6HR MIN TEMP:  13; 6HR MAX TEMP:  20;

ESCANABA       PTCLDY    10   9  92 N5        30.26S WCI   2
6HR MIN TEMP:   9; 6HR MAX TEMP:  25;

MENOMINEE      CLEAR     18  16  93 N6        30.26S WCI   9
6HR MIN TEMP:  18; 6HR MAX TEMP:  25;

SAWYER-GWINN   CLOUDY    19  17  90 N3        30.23F
$$
MIZ001>003-009>011-084-190700-
WESTERN UPPER MICHIGAN

CITY           SKY/WX    TMP DP  RH WIND       PRES   REMARKS
IRON MOUNTAIN  PTCLDY     5   2  87 CALM      30.23F
6HR MIN TEMP:   4; 6HR MAX TEMP:  17;

HOUGHTON       MOCLDY    12  11  95 CALM      30.25S
6HR MIN TEMP:   2; 6HR MAX TEMP:  19;

COPPER HARBOR    N/A     22  17  81 W7        30.27S WCI  13
6HR MIN TEMP:  17; 6HR MAX TEMP:  23;

IRONWOOD       PTCLDY     7   1  78 CALM      30.22S
6HR MIN TEMP:   7; 6HR MAX TEMP:  21;

$$

ABBREVIATIONS USED IN REMARKS
   TC - TEMPERATURE IN CELSIUS
  WCI - WIND CHILL INDEX
   HX - HEAT INDEX
  VSB - VISIBILITY




USA.gov is the U.S. government's official web portal to all federal, state and local government web resources and services.